Weather History for Poplar Bluff, MO

Change the Weather History Date:

Thursday, November 1, 2012

  Actual Average Record
Temperature  
Mean Temperature 50 °F -  
Max Temperature 66 °F 67 °F 84 °F (1937)
Min Temperature 35 °F 45 °F 22 °F (1930)
Degree Days  
Heating Degree Days 16    
Moisture  
Dew Point 36 °F    
Average Humidity 60    
Maximum Humidity 86    
Minimum Humidity 35    
Precipitation  
Precipitation 0.00 in - - ()
Sea Level Pressure  
Sea Level Pressure 29.99 in    
Wind  
Wind Speed 3 mph (SSW)    
Max Wind Speed 10 mph    
Max Gust Speed -    
Visibility 9 miles    
Events      
Averages and records for this station are not official NWS values.
T = Trace of Precipitation, MM = Missing Value Source: NWS Daily Summary

Daily Weather History Graph

Daily Weather History Graph

Search for Another Location

Airport:

Trip Planner

Search our weather history database for the weather conditions in past years. The results will help you decide how hot, cold, wet, or windy it might be!

Date:

Astronomy

Nov. 01, 2012 Rise Set
Actual Time 7:25 AM CDT 6:03 PM CDT
Civil Twilight 6:58 AM CDT 6:30 PM CDT
Nautical Twilight 6:28 AM CDT 7:01 PM CDT
Astronomical Twilight 5:57 AM CDT 7:31 PM CDT
Moon 8:04 PM CDT (11/1) 9:55 AM CDT (11/1)
Length of Visible Light 11h 31m
Length of Day
10h 38m
Waning Gibbous, 93% of the Moon is Illuminated
Nov 1
Waning Gibbous
Nov 6
Last Quarter
Nov 13
New
Nov 20
First Quarter
Nov 28
Full

Hourly Weather History & Observations

Time (CDT) Temp. Windchill Dew Point Humidity Pressure Visibility Wind Dir Wind Speed Gust Speed Precip Events Conditions
12:53 AM 42.1 °F - 30.0 °F 62% 30.00 in 10.0 mi Calm Calm - N/A   Clear
1:53 AM 39.9 °F - 30.0 °F 68% 30.00 in 10.0 mi Calm Calm - N/A   Clear
2:53 AM 39.0 °F - 30.9 °F 73% 30.01 in 10.0 mi Calm Calm - N/A   Clear
3:53 AM 37.0 °F - 30.9 °F 79% 30.01 in 10.0 mi Calm Calm - N/A   Clear
4:53 AM 36.0 °F - 30.9 °F 82% 30.02 in 10.0 mi Calm Calm - N/A   Clear
5:53 AM 35.1 °F - 30.9 °F 85% 30.04 in 10.0 mi Calm Calm - N/A   Clear
6:53 AM 36.0 °F - 30.9 °F 82% 30.04 in 10.0 mi Calm Calm - N/A   Clear
7:53 AM 36.0 °F - 32.0 °F 86% 30.05 in 10.0 mi Calm Calm - N/A   Clear
8:53 AM 45.0 °F 43.5 °F 34.0 °F 65% 30.07 in 10.0 mi NW 3.5 mph - N/A   Clear
9:53 AM - - - N/A% 30.05 in - Calm Calm - N/A   Clear
10:53 AM 57.0 °F - 33.1 °F 40% 30.06 in 10.0 mi South 8.1 mph - N/A   Clear
11:53 AM 59.0 °F - 33.1 °F 38% 30.05 in 10.0 mi South 10.4 mph - N/A   Clear
12:53 PM 63.0 °F - 35.1 °F 35% 30.01 in 10.0 mi SW 6.9 mph - N/A   Clear
1:53 PM 62.1 °F - 35.1 °F 37% 29.99 in 10.0 mi South 9.2 mph - N/A   Clear
2:53 PM 64.0 °F - 37.0 °F 37% 29.97 in 9.0 mi SSW 9.2 mph - N/A   Mostly Cloudy
3:53 PM 64.0 °F - 39.0 °F 40% 29.95 in 9.0 mi SSW 8.1 mph - N/A   Mostly Cloudy
4:53 PM 64.9 °F - 39.0 °F 39% 29.94 in 3.0 mi South 6.9 mph - N/A   Haze
5:53 PM 63.0 °F - 39.9 °F 43% 29.93 in 6.0 mi South 8.1 mph - N/A   Haze
6:53 PM 57.0 °F - 41.0 °F 55% 29.93 in 10.0 mi SSW 6.9 mph - N/A   Clear
7:53 PM 55.9 °F - 41.0 °F 57% 29.92 in 10.0 mi SSW 8.1 mph - N/A   Clear
8:53 PM 53.1 °F - 41.0 °F 64% 29.93 in 10.0 mi SSW 3.5 mph - N/A   Clear
9:53 PM 52.0 °F - 41.0 °F 66% 29.93 in 10.0 mi SSW 4.6 mph - N/A   Clear
10:53 PM 50.0 °F - 41.0 °F 71% 29.93 in 10.0 mi SW 5.8 mph - N/A   Clear
11:53 PM 50.0 °F - 41.0 °F 71% 29.91 in 10.0 mi SSW 5.8 mph - N/A   Clear